Regional Weather Roundup
Issued by NWS

Home | Current Version | Previous Version | Text Only | Print | Product List | Glossary Off
Versions: 1 2 3 4 5 6 7 8 9 10 11 12 13 14 15 16 17 18 19 20 21 22 23 24 25 26 27 28 29 30 31 32 33 34 35 36 37 38 39 40 41 42 43 44 45 46 47 48 49 50

000
ASUS43 KDTX 250510
RWRMI
MICHIGAN HOURLY REGIONAL WEATHER ROUNDUP
NATIONAL WEATHER SERVICE DETROIT/PONTIAC MI
ISSUED BY NATIONAL WEATHER SERVICE GRAND RAPIDS MI
100 AM EDT SUN JUN 25 2017

NOTE: "FAIR" INDICATES FEW OR NO CLOUDS BELOW 12,000 FEET WITH NO
SIGNIFICANT WEATHER AND/OR OBSTRUCTION TO VISIBILITY.

MIZ047>049-052>055-059>063-066>070-074>076-081>083-250600-
SOUTHEAST LOWER MICHIGAN

CITY           SKY/WX    TMP DP  RH WIND       PRES   REMARKS
ADRIAN         CLEAR     57  50  77 W6        30.04S
ALMA           CLEAR     57  47  69 SW9       29.99S
ANN ARBOR      MOCLDY    53  50  89 SW3       30.02S
BAD AXE        CLEAR     56  55  94 SW3       29.96S
DETROIT CITY   MOCLDY    63  48  58 W6        30.01R
DETROIT        PTCLDY    62  49  62 W7        30.02S
FLINT          CLOUDY    60  47  61 SW8       30.00R
GROSSE ILE     CLEAR     62  50  64 CALM      30.01S
HILLSDALE      PTCLDY    57  46  67 W5        30.04S
HOWELL         CLOUDY    61  46  58 SW5       30.01S

CITY           SKY/WX    TMP DP  RH WIND       PRES   REMARKS
JACKSON        CLEAR     57  49  74 SW6       30.03S
LANSING        CLEAR     59  47  64 SW6       30.01S
MASON          PTCLDY    60  49  66 CALM      30.01F
MONROE         CLEAR     60  50  71 W3        30.01F
MT. CLEMENS    CLEAR     62  49  62 SW6       29.98S
PONTIAC        CLOUDY    62  49  62 SW7       30.00R
PORT HOPE        N/A     59  54  83 SW5       29.93R
PORT HURON     CLEAR     55  50  82 CALM      29.99S
TRI CITIES     MOCLDY    59  52  77 SW7       29.98S
YPSILANTI      PTCLDY    60  52  74 SW7       30.02S
$$
MIZ043>046-050>051-056>058-064>065-071>073-077>080-250600-
SOUTHWEST LOWER MICHIGAN

CITY           SKY/WX    TMP DP  RH WIND       PRES   REMARKS
BATTLE CREEK   PTCLDY    56  49  77 SW6       30.03F
BENTON HARBOR  CLOUDY    64  50  60 W7        30.03F
BIG RAPIDS     PTCLDY    56  47  72 SW5       29.96F
COLDWATER      CLEAR     57  49  74 SW6       30.05S
HOLLAND        PTCLDY    62  49  62 W9        30.00F
GRAND RAPIDS   CLEAR     59  52  77 S7        29.99F
KALAMAZOO      PTCLDY    58  49  72 SW5       30.03F
MARSHALL       CLEAR     55  48  78 SW5       30.04R
MOUNT PLEASANT MOCLDY    58  48  68 SW6       29.97S
MUSKEGON       MOCLDY    63  48  58 W13       29.99S
STURGIS        CLEAR     57  50  78 CALM      30.05S
$$
MIZ016>042-250600-
NORTHERN LOWER MICHIGAN

CITY           SKY/WX    TMP DP  RH WIND       PRES   REMARKS
ALPENA         CLOUDY    56  55  97 SW3       29.93R
BEAVER ISLAND  CLOUDY    55  54  94 CALM      29.93S
BELLAIRE       CLOUDY    55  54  95 CALM      29.93S
CADILLAC       PTCLDY    50  49  97 CALM      29.95S
CHARLEVOIX     MOCLDY    56  56 100 SW3       29.95S
GAYLORD        CLOUDY    55  52  89 CALM      29.93F
HOUGHTON LAKE  MOCLDY    53  52  96 CALM      29.96R
MANISTEE       MOCLDY    54  54 100 NW10G16   29.94S
OSCODA         MOCLDY    56  55  94 W7        29.93S
PELLSTON       CLOUDY    57  54  89 CALM      29.92S
TRAVERSE CITY  MOCLDY    57  54  89 CALM      29.92S
LUDINGTON      CLOUDY    61  48  64 W13G20    29.94S
$$
MIZ007>008-015-250600-
EASTERN UPPER MICHIGAN

CITY           SKY/WX    TMP DP  RH WIND       PRES   REMARKS
KINROSS        CLOUDY    52  48  86 W6        29.90S
MACKINAC ISLAN CLOUDY    55  51  84 NW6       29.91S
NEWBERRY       LGT RAIN  52  51  97 SW3       29.92R
S. S. MARIE    MOCLDY    53  47  79 W6        29.89S
$$
MIZ004>006-011>014-085-250600-
CENTRAL UPPER MICHIGAN

CITY           SKY/WX    TMP DP  RH WIND       PRES   REMARKS
MANISTIQUE     RAIN      53  50  89 CALM      29.92S
ESCANABA       CLOUDY    54  53  97 NW5       29.93S
MENOMINEE      CLOUDY    52  52 100 W3        29.95S
SAWYER-GWINN   RAIN      51  50  95 NE3       29.94S
$$
MIZ001>003-009>011-084-250600-
WESTERN UPPER MICHIGAN

CITY           SKY/WX    TMP DP  RH WIND       PRES   REMARKS
IRON MOUNTAIN  LGT RAIN  53  50  89 W3        29.93S
HOUGHTON       FOG       51  49  92 CALM      29.93R VSB 1/4
COPPER HARBOR    N/A     49  48  97 N7        29.93R
IRONWOOD       CLOUDY    52  51  97 W6        29.97R
$$

ABBREVIATIONS USED IN REMARKS
   TC - TEMPERATURE IN CELSIUS
  WCI - WIND CHILL INDEX
   HX - HEAT INDEX
  VSB - VISIBILITY





USA.gov is the U.S. government's official web portal to all federal, state and local government web resources and services.